This is the latest recevied weather packets stored in our database for station/object N0QV. If no packets are shown the sender has not sent any weather packets the latest 10 day(s).
| Time | Temp. | Humidity | Pressure | Rain* | Wind** | Luminosity | Snow |
|---|---|---|---|---|---|---|---|
| 1788030251 | 27.78° C | 63% | 1009.6 hPa | 0 mm | - | 600 W/m² | - |
| 1788029950 | 27.22° C | 63% | 1009.8 hPa | 0 mm | - | 316 W/m² | - |
| 1788029646 | 27.22° C | 62% | 1009.9 hPa | 0 mm | - | 267 W/m² | - |
| 1788029341 | 27.78° C | 63% | 1010 hPa | 0 mm | - | 224 W/m² | - |
| 1788029040 | 27.78° C | 61% | 1010 hPa | 0 mm | - | 271 W/m² | - |
| 1788028739 | 27.78° C | 64% | 1010 hPa | 0 mm | - | 159 W/m² | - |
| 1788028434 | 27.78° C | 63% | 1010 hPa | 0 mm | - | 222 W/m² | - |
| 1788028131 | 27.78° C | 66% | 1009.9 hPa | 0 mm | - | 381 W/m² | - |
| 1788027830 | 26.67° C | 62% | 1010.1 hPa | 0 mm | - | 404 W/m² | - |
| 1788027531 | 27.22° C | 66% | 1010.1 hPa | 0 mm | - | 305 W/m² | - |
| 1788027231 | 27.22° C | 62% | 1010.5 hPa | 0 mm | - | 268 W/m² | - |
| 1788026930 | 27.22° C | 62% | 1010.4 hPa | 0 mm | - | 562 W/m² | - |
| 1788026625 | 26.67° C | 64% | 1010.8 hPa | 0 mm | - | 590 W/m² | - |
| 1788026320 | 26.11° C | 65% | 1010.5 hPa | 0 mm | - | 432 W/m² | - |
| 1788026016 | 26.11° C | 65% | 1010.7 hPa | 0 mm | - | 248 W/m² | - |
| 1788025715 | 26.11° C | 64% | 1010.8 hPa | 0 mm | - | 246 W/m² | - |
| 1788025414 | 26.11° C | 64% | 1010.9 hPa | 0 mm | - | 647 W/m² | - |
| 1788025110 | 26.67° C | 64% | 1010.8 hPa | 0 mm | - | 498 W/m² | - |
| 1788024809 | 26.67° C | 63% | 1010.9 hPa | 0 mm | - | 560 W/m² | - |
| 1788024506 | 26.67° C | 64% | 1010.9 hPa | 0 mm | - | 274 W/m² | - |
| 1788024207 | 26.11° C | 66% | 1010.9 hPa | 0 mm | - | 286 W/m² | - |
| 1788023901 | 26.11° C | 65% | 1011.1 hPa | 0 mm | - | 446 W/m² | - |
| 1788023596 | 26.11° C | 65% | 1011.1 hPa | 0 mm | - | 453 W/m² | - |
| 1788023292 | 26.67° C | 64% | 1011.3 hPa | 0 mm | - | 626 W/m² | - |
| 1788022987 | 26.67° C | 64% | 1011.5 hPa | 0 mm | - | 627 W/m² | - |
* Rain latest hour (hover to see other rain measurements)
** Current wind speed in m/s (hover to see current wind gust speed)